ON6OO-13 Weather Reports


Display with metric or nautical units.
time (UTC)temp
F
wind
direction
speed
MPH
gust
MPH
rain 1hr
in
rain 24hr
in
rain mn
in
humidity
%
barometer
mb
20260507105414 58 47 1.0 2.0 0.00 0.00 0.00 64 1015.9
20260507103902 57 75 4.0 7.0 0.00 0.00 0.00 64 1015.9
20260507102349 57 302 0.0 2.0 0.00 0.00 0.00 66 1016.2
20260507100838 56 303 0.0 2.0 0.00 0.00 0.00 67 1016.2
20260507095326 56 28 9.0 12.0 0.00 0.00 0.00 66 1015.9
20260507093813 55 281 0.0 0.0 0.00 0.00 0.00 71 1015.9
20260507092301 55 70 4.0 4.0 0.00 0.00 0.00 70 1015.9
20260507090749 54 305 6.0 7.0 0.00 0.00 0.00 70 1015.9
20260507085238 54 20 8.0 12.0 0.00 0.00 0.00 72 1016.2
20260507083725 53 0 5.0 7.0 0.00 0.00 0.00 75 1016.2
20260507082213 53 332 2.0 4.0 0.00 0.00 0.00 75 1016.2
20260507080701 52 12 3.0 4.0 0.00 0.00 0.00 76 1016.2
20260507075150 50 325 0.0 2.0 0.00 0.00 0.00 79 1015.9
20260507073637 50 354 3.0 4.0 0.00 0.00 0.00 81 1016.2
20260507072125 49 46 2.0 4.0 0.00 0.00 0.00 82 1015.9
20260507070613 49 16 3.0 4.0 0.00 0.00 0.00 84 1015.9
20260507065101 48 319 7.0 10.0 0.00 0.00 0.00 85 1015.9
20260507063550 48 13 3.0 4.0 0.00 0.00 0.00 87 1015.9
20260507062037 48 13 3.0 4.0 0.00 0.00 0.00 88 1015.5
20260507060525 48 326 0.0 0.0 0.00 0.00 0.00 88 1015.5
20260507055014 48 346 4.0 4.0 0.00 0.00 0.00 88 1015.2
20260507053501 48 341 0.0 0.0 0.00 0.00 0.00 88 1015.2
20260507051949 48 358 0.0 0.0 0.00 0.00 0.00 89 1015.2
20260507050437 48 7 0.0 0.0 0.00 0.00 0.00 89 1015.2
20260507044925 48 346 0.0 0.0 0.00 0.00 0.00 90 1014.9
20260507043413 48 351 0.0 0.0 0.00 0.00 0.00 90 1014.5
20260507041901 47 343 0.0 0.0 0.00 0.00 0.00 90 1014.5
20260507040349 48 331 0.0 0.0 0.00 0.00 0.00 91 1014.5
20260507034837 48 256 0.0 0.0 0.00 0.00 0.00 90 1014.5
20260507033325 48 252 0.0 0.0 0.00 0.00 0.00 90 1014.2
20260507031813 48 252 0.0 0.0 0.00 0.00 0.00 89 1014.2
20260507030301 48 252 0.0 0.0 0.00 0.00 0.00 88 1013.8
20260507024749 48 252 0.0 0.0 0.00 0.00 0.00 87 1014.2
20260507023237 48 219 0.0 0.0 0.00 0.00 0.00 88 1013.8
20260507021725 48 219 0.0 0.0 0.00 0.00 0.00 88 1013.8
20260507020213 48 219 0.0 0.0 0.00 0.00 0.00 87 1013.5
20260507014702 48 244 0.0 0.0 0.00 0.00 0.00 87 1013.5
20260507013149 48 266 0.0 0.0 0.00 0.00 0.00 88 1013.5
20260507011637 49 258 0.0 0.0 0.00 0.00 0.00 88 1013.5
20260507010125 49 220 0.0 0.0 0.00 0.00 0.00 88 1013.5
20260507004613 49 217 0.0 0.0 0.00 0.00 0.00 87 1013.5
20260507003101 49 251 0.0 0.0 0.00 0.00 0.00 86 1013.5
20260507001549 49 280 0.0 0.0 0.00 0.00 0.00 85 1013.5
20260507000037 49 303 0.0 0.0 0.00 0.00 0.00 85 1013.2
20260506234525 49 280 0.0 0.0 0.00 0.00 0.00 85 1013.2
20260506233013 49 315 0.0 0.0 0.00 0.00 0.00 84 1013.2
20260506231501 49 334 0.0 0.0 0.00 0.00 0.00 84 1012.8
20260506225949 49 356 0.0 0.0 0.00 0.00 0.00 84 1012.8
20260506224437 49 358 0.0 0.0 0.00 0.00 0.00 85 1012.8
20260506222925 49 343 0.0 0.0 0.00 0.00 0.00 85 1012.5
20260506221413 50 331 0.0 0.0 0.00 0.00 0.00 85 1012.5
20260506215901 50 315 0.0 0.0 0.00 0.00 0.00 84 1012.5
20260506214349 50 338 0.0 0.0 0.00 0.00 0.00 83 1012.5
20260506212837 50 320 0.0 0.0 0.00 0.00 0.00 83 1012.5
20260506211325 50 341 0.0 0.0 0.00 0.00 0.00 83 1012.5
20260506205813 50 341 0.0 0.0 0.00 0.00 0.00 83 1012.1
20260506204301 50 358 0.0 0.0 0.00 0.00 0.00 82 1012.5
20260506202749 50 12 0.0 2.0 0.00 0.00 0.00 83 1011.8
20260506201237 50 3 4.0 7.0 0.00 0.00 0.00 84 1011.8
20260506195724 50 10 0.0 0.0 0.00 0.00 0.00 84 1011.8
20260506194212 50 4 2.0 4.0 0.00 0.00 0.00 85 1011.8
20260506192701 50 345 0.0 2.0 0.00 0.00 0.00 85 1011.5
20260506191149 50 7 5.0 7.0 0.00 0.00 0.00 85 1011.5
20260506185636 50 15 0.0 2.0 0.00 0.00 0.00 85 1011.1
20260506184125 51 129 0.0 2.0 0.00 0.00 0.00 83 1011.1
20260506182612 51 355 6.0 10.0 0.00 0.00 0.00 80 1010.8
20260506181100 52 354 8.0 10.0 0.00 0.00 0.00 78 1010.8
20260506175548 52 354 10.0 12.0 0.00 0.00 0.00 76 1010.4
20260506174036 52 32 6.0 10.0 0.00 0.00 0.00 74 1010.1
20260506172524 52 4 10.0 12.0 0.00 0.00 0.00 73 1010.1
20260506171012 53 37 3.0 4.0 0.00 0.00 0.00 73 1010.1
20260506165500 53 19 10.0 12.0 0.00 0.00 0.00 72 1009.8
20260506163948 54 10 12.0 17.0 0.00 0.00 0.00 71 1009.4
20260506162436 55 15 9.0 12.0 0.00 0.00 0.00 67 1009.4
20260506160924 56 338 13.0 17.0 0.00 0.00 0.00 63 1009.4
20260506155412 56 33 8.0 14.0 0.00 0.00 0.00 64 1009.1
20260506153900 56 267 8.0 10.0 0.00 0.00 0.00 64 1009.1
20260506152348 56 334 10.0 12.0 0.00 0.00 0.00 65 1009.1
20260506150836 56 331 11.0 14.0 0.00 0.00 0.00 65 1009.1
20260506145324 57 20 6.0 7.0 0.00 0.00 0.00 67 1009.1
20260506143812 57 21 7.0 10.0 0.00 0.00 0.00 66 1009.1
20260506142300 57 315 11.0 14.0 0.00 0.00 0.00 65 1008.8
20260506140748 57 14 9.0 14.0 0.00 0.00 0.00 61 1008.8
20260506135236 57 25 9.0 12.0 0.00 0.00 0.00 62 1008.8
20260506133724 57 342 7.0 10.0 0.00 0.00 0.00 60 1008.8
20260506132212 57 319 4.0 10.0 0.00 0.00 0.00 64 1009.1
20260506130700 57 345 10.0 12.0 0.00 0.00 0.00 66 1008.8
20260506125148 57 10 9.0 12.0 0.00 0.00 0.00 65 1009.1
20260506123636 56 5 7.0 10.0 0.00 0.00 0.00 66 1008.8
20260506122124 56 348 15.0 20.0 0.00 0.00 0.00 67 1008.8
20260506120612 56 319 11.0 14.0 0.00 0.00 0.00 70 1008.8
20260506115100 56 2 9.0 12.0 0.00 0.00 0.00 70 1008.4
20260506113548 55 22 8.0 12.0 0.00 0.00 0.00 71 1008.8
20260506112036 55 330 3.0 4.0 0.00 0.00 0.00 75 1008.8
20260506110524 54 332 10.0 12.0 0.00 0.00 0.00 78 1008.8